GW5516 Weather Reports


Display with metric or nautical units.
time (UTC)temp
F
wind
direction
speed
MPH
gust
MPH
rain 1hr
in
rain 24hr
in
rain mn
in
humidity
%
barometer
mb
20260510130337 62 38 11.0 17.0 0.00 0.00 0.00 74 1018.3
20260510125833 62 16 10.0 17.0 0.00 0.00 0.00 75 1018.1
20260510125329 61 31 13.0 18.0 0.00 0.00 0.00 76 1017.8
20260510124826 61 39 12.0 13.0 0.00 0.00 0.00 77 1017.8
20260510124323 61 31 12.0 17.0 0.00 0.00 0.00 78 1017.8
20260510123819 61 38 8.0 14.0 0.00 0.00 0.00 79 1017.6
20260510123315 61 32 9.0 14.0 0.00 0.00 0.00 79 1017.4
20260510122811 60 27 11.0 15.0 0.00 0.00 0.00 80 1017.5
20260510122307 60 35 15.0 16.0 0.00 0.00 0.00 80 1017.5
20260510121804 60 31 6.0 14.0 0.00 0.00 0.00 80 1017.4
20260510121302 60 30 11.0 15.0 0.00 0.00 0.00 80 1016.9
20260510120758 59 36 9.0 13.0 0.00 0.00 0.00 82 1017.0
20260510120255 59 36 7.0 11.0 0.00 0.00 0.00 82 1016.8
20260510115751 59 27 11.0 14.0 0.00 0.00 0.00 81 1016.9
20260510115250 60 26 10.0 14.0 0.00 0.00 0.00 80 1016.7
20260510114749 60 31 11.0 15.0 0.00 0.00 0.00 80 1016.7
20260510114248 60 30 7.0 11.0 0.00 0.00 0.00 80 1016.8
20260510113748 60 31 8.0 11.0 0.00 0.00 0.00 79 1016.6
20260510113245 60 29 9.0 12.0 0.00 0.00 0.00 78 1016.5
20260510112741 60 31 11.0 12.0 0.00 0.00 0.00 78 1016.2
20260510112238 60 38 8.0 11.0 0.00 0.00 0.00 77 1016.1
20260510111734 60 36 8.0 10.0 0.00 0.00 0.00 76 1016.0
20260510111231 60 24 7.0 11.0 0.00 0.00 0.00 76 1015.9
20260510110730 61 23 8.0 12.0 0.00 0.00 0.00 74 1015.9
20260510110229 61 29 9.0 11.0 0.00 0.00 0.00 73 1015.7
20260510105728 61 28 5.0 9.0 0.00 0.00 0.00 73 1015.8
20260510105223 61 28 6.0 8.0 0.00 0.00 0.00 73 1015.5
20260510104720 60 37 6.0 6.0 0.00 0.00 0.00 73 1015.6
20260510104218 60 18 3.0 5.0 0.00 0.00 0.00 74 1015.5
20260510103714 60 5 3.0 5.0 0.00 0.00 0.00 75 1015.6
20260510103211 60 13 3.0 4.0 0.00 0.00 0.00 77 1015.5
20260510102711 59 2 4.0 4.0 0.00 0.00 0.00 78 1015.7
20260510102207 59 34 1.0 2.0 0.00 0.00 0.00 78 1015.7
20260510101704 60 58 2.0 3.0 0.00 0.00 0.00 78 1015.7
20260510101203 60 53 2.0 2.0 0.00 0.00 0.00 78 1015.6
20260510100658 60 12 2.0 2.0 0.00 0.00 0.00 76 1015.6
20260510100156 60 326 3.0 4.0 0.00 0.00 0.00 76 1015.5
20260510095651 60 0 0.0 3.0 0.00 0.00 0.00 77 1015.5
20260510095147 60 48 0.0 2.0 0.00 0.00 0.00 78 1015.5
20260510094645 60 0 0.0 1.0 0.00 0.00 0.00 77 1015.3
20260510094141 60 40 0.0 1.0 0.00 0.00 0.00 77 1015.4
20260510093638 60 97 0.0 2.0 0.00 0.00 0.00 76 1015.2
20260510093135 60 355 0.0 2.0 0.00 0.00 0.00 77 1015.3
20260510092631 60 260 1.0 2.0 0.00 0.00 0.00 78 1015.1
20260510092127 60 279 0.0 1.0 0.00 0.00 0.00 77 1015.1
20260510091623 59 293 0.0 1.0 0.00 0.00 0.00 80 1014.9
20260510091119 60 161 2.0 2.0 0.00 0.00 0.00 78 1014.8
20260510090616 61 133 2.0 3.0 0.00 0.00 0.00 77 1014.7
20260510090112 60 76 2.0 2.0 0.00 0.00 0.00 76 1014.7
20260510085607 60 117 2.0 3.0 0.00 0.00 0.00 78 1014.5
20260510085103 60 167 1.0 2.0 0.00 0.00 0.00 77 1014.5
20260510084600 61 118 2.0 5.0 0.00 0.00 0.00 75 1014.6
20260510084056 62 93 1.0 1.0 0.00 0.00 0.00 72 1014.6
20260510083553 62 54 1.0 2.0 0.00 0.00 0.00 71 1014.5
20260510083049 62 98 1.0 2.0 0.00 0.00 0.00 70 1014.6
20260510082546 62 241 1.0 1.0 0.00 0.00 0.00 69 1014.6
20260510082042 63 189 2.0 4.0 0.00 0.00 0.00 68 1014.4
20260510081537 63 119 5.0 6.0 0.00 0.00 0.00 68 1014.5
20260510081033 66 54 3.0 5.0 0.00 0.00 0.00 62 1014.2
20260510080532 66 68 2.0 4.0 0.00 0.00 0.00 63 1014.3
20260510080029 66 90 4.0 6.0 0.00 0.00 0.00 62 1013.9
20260510075526 62 76 3.0 3.0 0.00 0.00 0.00 73 1014.1
20260510075023 62 88 2.0 2.0 0.00 0.00 0.00 72 1014.3
20260510074521 62 124 0.0 1.0 0.00 0.00 0.00 73 1014.6
20260510074016 63 177 0.0 4.0 0.00 0.00 0.00 72 1014.6
20260510073512 67 157 2.0 4.0 0.00 0.00 0.00 66 1014.5
20260510073009 66 70 3.0 5.0 0.00 0.00 0.00 61 1014.4
20260510072506 64 40 3.0 3.0 0.00 0.00 0.00 69 1014.3
20260510072001 63 1 2.0 2.0 0.00 0.00 0.00 70 1014.2
20260510071458 63 102 2.0 3.0 0.00 0.00 0.00 70 1014.1
20260510070956 62 103 3.0 3.0 0.00 0.00 0.00 72 1014.1
20260510070453 63 89 0.0 2.0 0.00 0.00 0.00 73 1014.1
20260510065949 63 88 3.0 4.0 0.00 0.00 0.00 71 1014.3
20260510065446 63 97 2.0 3.0 0.00 0.00 0.00 73 1014.5
20260510064942 64 99 2.0 3.0 0.00 0.00 0.00 69 1014.3
20260510064439 64 97 2.0 2.0 0.00 0.00 0.00 69 1014.2
20260510063936 64 69 0.0 1.0 0.00 0.00 0.00 68 1014.5
20260510063432 64 256 2.0 3.0 0.00 0.00 0.00 68 1014.4
20260510062930 64 348 4.0 6.0 0.00 0.00 0.00 67 1014.4
20260510062425 64 350 2.0 5.0 0.00 0.00 0.00 68 1014.4
20260510061921 63 0 15.0 17.0 0.00 0.00 0.00 66 1014.1
20260510061417 64 297 2.0 4.0 0.00 0.00 0.00 68 1014.2
20260510060913 63 86 1.0 2.0 0.00 0.00 0.00 67 1013.9
20260510060410 63 124 0.0 1.0 0.00 0.00 0.00 70 1014.0
20260510055907 63 102 1.0 2.0 0.00 0.00 0.00 69 1014.3
20260510055402 63 120 1.0 1.0 0.00 0.00 0.00 71 1014.3
20260510054900 63 217 0.0 0.0 0.00 0.00 0.00 69 1014.0
20260510054356 63 180 0.0 1.0 0.00 0.00 0.00 70 1014.3
20260510053851 64 230 0.0 1.0 0.00 0.00 0.00 69 1014.5
20260510053347 63 187 1.0 1.0 0.00 0.00 0.00 70 1014.3
20260510052843 64 153 0.0 2.0 0.00 0.00 0.00 70 1014.2
20260510052338 64 125 2.0 3.0 0.00 0.00 0.00 69 1014.2
20260510051835 64 134 3.0 4.0 0.00 0.00 0.00 68 1014.2
20260510051332 64 146 2.0 4.0 0.00 0.00 0.00 72 1014.2
20260510050830 63 126 2.0 3.0 0.00 0.00 0.00 73 1014.1
20260510050325 64 135 0.0 0.0 0.00 0.00 0.00 73 1014.2
20260510045823 64 89 0.0 0.0 0.00 0.00 0.00 74 1013.9
20260510045319 64 104 0.0 1.0 0.00 0.00 0.00 71 1014.1
20260510044816 65 139 1.0 2.0 0.00 0.00 0.00 69 1013.9
20260510044313 64 156 2.0 2.0 0.00 0.00 0.00 69 1013.9
20260510043809 65 245 1.0 2.0 0.00 0.00 0.00 70 1013.8
20260510043300 66 134 2.0 3.0 0.00 0.00 0.00 64 1013.8
20260510042758 65 128 4.0 4.0 0.00 0.00 0.00 67 1013.8
20260510042252 65 112 2.0 4.0 0.00 0.00 0.00 68 1013.6
20260510041744 64 133 2.0 2.0 0.00 0.00 0.00 69 1014.1
20260510041241 64 135 2.0 2.0 0.00 0.00 0.00 68 1014.0
20260510040739 64 124 0.0 0.0 0.00 0.00 0.00 70 1014.0
20260510040236 64 129 0.0 2.0 0.00 0.00 0.00 67 1013.8
20260510035730 66 193 1.0 2.0 0.00 0.00 0.00 63 1013.8
20260510035226 65 153 3.0 4.0 0.00 0.00 0.00 66 1013.7
20260510034723 65 130 2.0 2.0 0.00 0.00 0.00 64 1013.5
20260510034221 64 144 2.0 2.0 0.00 0.00 0.00 67 1013.4
20260510033716 66 133 1.0 2.0 0.00 0.00 0.00 64 1013.5
20260510033215 67 130 3.0 3.0 0.00 0.00 0.00 61 1013.5
20260510032710 67 138 2.0 3.0 0.00 0.00 0.00 61 1013.3
20260510032206 67 148 3.0 4.0 0.00 0.00 0.00 60 1013.3
20260510031702 68 153 3.0 3.0 0.00 0.00 0.00 59 1013.3
20260510031158 67 148 3.0 3.0 0.00 0.00 0.00 60 1013.2
20260510030652 66 130 2.0 2.0 0.00 0.00 0.00 62 1013.4
20260510030151 65 129 2.0 2.0 0.00 0.00 0.00 69 1013.2
20260510025648 66 130 1.0 2.0 0.00 0.00 0.00 68 1013.2
20260510025145 65 114 2.0 3.0 0.00 0.00 0.00 69 1013.1
20260510024642 65 87 1.0 2.0 0.00 0.00 0.00 71 1013.0
20260510024138 65 142 0.0 0.0 0.00 0.00 0.00 70 1013.0
20260510023634 66 142 0.0 0.0 0.00 0.00 0.00 68 1012.8
20260510023131 67 117 1.0 2.0 0.00 0.00 0.00 65 1012.7
20260510022631 68 147 0.0 2.0 0.00 0.00 0.00 66 1012.5
20260510022126 70 136 2.0 2.0 0.00 0.00 0.00 55 1012.2
20260510021622 69 146 2.0 2.0 0.00 0.00 0.00 56 1011.9
20260510021120 67 97 1.0 2.0 0.00 0.00 0.00 65 1011.8
20260510020613 68 110 2.0 2.0 0.00 0.00 0.00 63 1011.9
20260510020109 68 123 0.0 2.0 0.00 0.00 0.00 59 1011.8
20260510015605 69 113 2.0 2.0 0.00 0.00 0.00 59 1012.0
20260510015102 71 135 2.0 2.0 0.00 0.00 0.00 54 1011.6
20260510014557 69 132 1.0 2.0 0.00 0.00 0.00 60 1011.8
20260510014055 69 124 2.0 2.0 0.00 0.00 0.00 60 1011.5
20260510013550 71 136 2.0 2.0 0.00 0.00 0.00 54 1011.3
20260510013046 71 143 1.0 2.0 0.00 0.00 0.00 55 1011.5
20260510012545 72 158 1.0 2.0 0.00 0.00 0.00 52 1011.3
20260510012042 73 167 2.0 2.0 0.00 0.00 0.00 51 1011.3
20260510011541 73 170 1.0 2.0 0.00 0.00 0.00 51 1011.2
20260510011037 73 172 1.0 2.0 0.00 0.00 0.00 51 1011.3
20260510010534 74 163 1.0 2.0 0.00 0.00 0.00 51 1011.2
20260510010032 74 154 3.0 3.0 0.00 0.00 0.00 52 1011.0
20260510005527 75 138 3.0 3.0 0.00 0.00 0.00 48 1011.1
20260510005025 76 147 1.0 2.0 0.00 0.00 0.00 48 1011.0
20260510004522 77 173 4.0 4.0 0.00 0.00 0.00 42 1011.0
20260510004021 77 182 3.0 3.0 0.00 0.00 0.00 45 1010.8
20260510003517 77 166 2.0 3.0 0.00 0.00 0.00 48 1010.8
20260510003012 77 139 2.0 3.0 0.00 0.00 0.00 48 1010.6
20260510002508 79 158 2.0 3.0 0.00 0.00 0.00 39 1010.8
20260510002005 79 182 2.0 2.0 0.00 0.00 0.00 40 1010.8
20260510001502 79 186 3.0 4.0 0.00 0.00 0.00 38 1010.8
20260510001000 79 186 2.0 3.0 0.00 0.00 0.00 38 1010.7
20260510000456 79 215 3.0 4.0 0.00 0.00 0.00 38 1011.0
20260509235952 79 190 5.0 6.0 0.00 0.00 0.00 37 1010.9
20260509235449 80 189 2.0 3.0 0.00 0.00 0.00 39 1011.1
20260509234945 79 218 2.0 3.0 0.00 0.00 0.00 38 1011.0
20260509234442 80 194 2.0 3.0 0.00 0.00 0.00 39 1010.7
20260509233940 80 212 2.0 4.0 0.00 0.00 0.00 40 1011.0
20260509233437 81 263 2.0 4.0 0.00 0.00 0.00 40 1010.9
20260509232933 80 225 6.0 6.0 0.00 0.00 0.00 38 1011.0
20260509232431 80 205 5.0 8.0 0.00 0.00 0.00 36 1011.0
20260509231927 81 210 6.0 7.0 0.00 0.00 0.00 37 1011.0
20260509231424 81 245 4.0 7.0 0.00 0.00 0.00 37 1011.1
20260509230922 81 214 8.0 10.0 0.00 0.00 0.00 36 1011.0
20260509230418 81 254 4.0 5.0 0.00 0.00 0.00 37 1010.8
20260509225914 81 202 3.0 5.0 0.00 0.00 0.00 38 1010.8
20260509225411 81 222 5.0 10.0 0.00 0.00 0.00 40 1010.8
20260509224907 80 202 4.0 6.0 0.00 0.00 0.00 37 1010.9
20260509224403 81 192 6.0 8.0 0.00 0.00 0.00 38 1011.0
20260509223900 80 140 4.0 8.0 0.00 0.00 0.00 37 1010.8
20260509223356 80 101 5.0 9.0 0.00 0.00 0.00 37 1010.8
20260509222854 80 104 3.0 7.0 0.00 0.00 0.00 36 1010.9
20260509222354 80 147 6.0 10.0 0.00 0.00 0.00 36 1010.9
20260509221850 80 224 9.0 14.0 0.00 0.00 0.00 37 1010.7
20260509221348 81 202 7.0 11.0 0.00 0.00 0.00 39 1011.0
20260509220843 82 238 4.0 6.0 0.00 0.00 0.00 38 1010.7
20260509220339 81 249 2.0 5.0 0.00 0.00 0.00 34 1011.0
20260509215835 82 311 4.0 5.0 0.00 0.00 0.00 30 1010.9
20260509215332 82 312 9.0 11.0 0.00 0.00 0.00 31 1011.1
20260509214829 80 272 4.0 7.0 0.00 0.00 0.00 32 1011.0
20260509214326 80 260 9.0 12.0 0.00 0.00 0.00 34 1011.0
20260509213823 80 247 9.0 17.0 0.00 0.00 0.00 34 1011.0
20260509213318 81 278 8.0 10.0 0.00 0.00 0.00 35 1010.9
20260509212816 82 232 6.0 8.0 0.00 0.00 0.00 32 1011.0
20260509212313 82 226 5.0 5.0 0.00 0.00 0.00 33 1011.1
20260509211808 83 273 4.0 8.0 0.00 0.00 0.00 29 1011.2
20260509211304 82 131 2.0 3.0 0.00 0.00 0.00 30 1011.3
20260509210801 80 251 5.0 13.0 0.00 0.00 0.00 32 1011.3
20260509210259 82 260 7.0 10.0 0.00 0.00 0.00 33 1011.4
20260509205759 84 294 6.0 6.0 0.00 0.00 0.00 32 1011.3
20260509205254 83 229 4.0 4.0 0.00 0.00 0.00 31 1011.4
20260509204750 81 245 5.0 10.0 0.00 0.00 0.00 33 1011.4
20260509204247 81 226 10.0 10.0 0.00 0.00 0.00 32 1011.4
20260509203743 81 255 7.0 11.0 0.00 0.00 0.00 33 1011.3
20260509203241 81 313 2.0 7.0 0.00 0.00 0.00 31 1011.4
20260509202737 80 283 8.0 11.0 0.00 0.00 0.00 35 1011.5
20260509202233 81 299 11.0 12.0 0.00 0.00 0.00 38 1011.6
20260509201732 81 246 8.0 9.0 0.00 0.00 0.00 38 1011.7
20260509201229 81 239 6.0 6.0 0.00 0.00 0.00 37 1011.8
20260509200726 80 233 7.0 9.0 0.00 0.00 0.00 36 1011.4
20260509200221 80 252 10.0 12.0 0.00 0.00 0.00 36 1011.6
20260509195717 80 267 7.0 9.0 0.00 0.00 0.00 36 1011.8
20260509195213 80 236 12.0 13.0 0.00 0.00 0.00 36 1011.8
20260509194712 81 275 8.0 9.0 0.00 0.00 0.00 34 1011.7
20260509194209 80 281 4.0 9.0 0.00 0.00 0.00 36 1011.9
20260509193706 80 272 6.0 12.0 0.00 0.00 0.00 34 1012.0
20260509193201 79 251 8.0 13.0 0.00 0.00 0.00 34 1011.8
20260509192657 80 281 7.0 14.0 0.00 0.00 0.00 33 1011.9
20260509192158 79 235 9.0 15.0 0.00 0.00 0.00 32 1012.0
20260509191653 79 248 4.0 7.0 0.00 0.00 0.00 36 1011.8
20260509191150 79 261 11.0 22.0 0.00 0.00 0.00 39 1012.1
20260509190646 80 274 10.0 15.0 0.00 0.00 0.00 40 1012.0
20260509190143 79 232 10.0 13.0 0.00 0.00 0.00 36 1012.0
20260509185641 80 266 5.0 7.0 0.00 0.00 0.00 36 1012.1
20260509185137 79 257 8.0 11.0 0.00 0.00 0.00 39 1012.1
20260509184636 79 288 9.0 12.0 0.00 0.00 0.00 36 1012.0
20260509184132 79 297 7.0 13.0 0.00 0.00 0.00 33 1012.1
20260509183628 79 245 9.0 11.0 0.00 0.00 0.00 35 1012.0
20260509183124 79 288 4.0 16.0 0.00 0.00 0.00 37 1012.2
20260509182619 79 260 5.0 9.0 0.00 0.00 0.00 40 1012.2
20260509182117 79 271 9.0 11.0 0.00 0.00 0.00 41 1012.2
20260509181614 79 260 9.0 14.0 0.00 0.00 0.00 40 1012.4
20260509181112 79 314 8.0 12.0 0.00 0.00 0.00 36 1012.1
20260509180608 78 250 8.0 14.0 0.00 0.00 0.00 39 1012.2
20260509180105 78 255 14.0 15.0 0.00 0.00 0.00 36 1012.1
20260509175600 78 268 5.0 9.0 0.00 0.00 0.00 41 1012.1
20260509175058 78 265 7.0 9.0 0.00 0.00 0.00 43 1012.2
20260509174554 79 239 5.0 10.0 0.00 0.00 0.00 39 1012.2
20260509174050 78 290 8.0 11.0 0.00 0.00 0.00 41 1012.2
20260509173549 78 229 13.0 18.0 0.00 0.00 0.00 42 1012.6
20260509173046 78 273 5.0 9.0 0.00 0.00 0.00 45 1012.4
20260509172543 78 306 8.0 10.0 0.00 0.00 0.00 39 1012.2
20260509172039 78 311 7.0 12.0 0.00 0.00 0.00 40 1012.4
20260509171535 77 274 4.0 11.0 0.00 0.00 0.00 40 1012.6
20260509171032 77 224 9.0 12.0 0.00 0.00 0.00 43 1012.4
20260509170527 77 256 10.0 16.0 0.00 0.00 0.00 43 1012.4
20260509170023 77 244 8.0 13.0 0.00 0.00 0.00 43 1012.5
20260509165522 76 288 6.0 13.0 0.00 0.00 0.00 45 1012.5
20260509165018 76 262 9.0 13.0 0.00 0.00 0.00 44 1012.5
20260509164514 77 236 14.0 16.0 0.00 0.00 0.00 45 1012.2
20260509164010 76 285 9.0 12.0 0.00 0.00 0.00 46 1012.5
20260509163508 77 275 8.0 11.0 0.00 0.00 0.00 46 1012.4
20260509163008 76 263 5.0 9.0 0.00 0.00 0.00 52 1012.4
20260509162506 76 254 7.0 11.0 0.00 0.00 0.00 50 1012.5
20260509162001 75 263 11.0 13.0 0.00 0.00 0.00 49 1012.4
20260509161458 75 267 5.0 12.0 0.00 0.00 0.00 55 1012.5
20260509160953 75 284 4.0 10.0 0.00 0.00 0.00 55 1012.6
20260509160450 74 228 7.0 9.0 0.00 0.00 0.00 58 1012.6
20260509155949 74 265 5.0 10.0 0.00 0.00 0.00 55 1012.6
20260509155447 74 246 11.0 12.0 0.00 0.00 0.00 57 1012.4
20260509154943 74 235 12.0 13.0 0.00 0.00 0.00 54 1012.2
20260509154439 73 258 4.0 10.0 0.00 0.00 0.00 57 1012.4
20260509153937 73 230 7.0 11.0 0.00 0.00 0.00 56 1012.5
20260509153434 72 239 9.0 11.0 0.00 0.00 0.00 59 1012.5
20260509152931 72 226 7.0 9.0 0.00 0.00 0.00 62 1012.4
20260509152426 72 266 3.0 8.0 0.00 0.00 0.00 64 1012.4
20260509151924 72 249 6.0 7.0 0.00 0.00 0.00 63 1012.2
20260509151420 72 252 6.0 8.0 0.00 0.00 0.00 66 1012.5
20260509150918 71 239 6.0 11.0 0.00 0.00 0.00 64 1012.4
20260509150415 71 255 5.0 11.0 0.00 0.00 0.00 64 1012.5
20260509145914 71 260 7.0 12.0 0.00 0.00 0.00 66 1012.2
20260509145413 71 252 8.0 8.0 0.00 0.00 0.00 68 1012.2
20260509144909 70 271 7.0 8.0 0.00 0.00 0.00 69 1012.1
20260509144406 69 251 7.0 9.0 0.00 0.00 0.00 69 1012.1
20260509143903 69 252 7.0 10.0 0.00 0.00 0.00 68 1012.2
20260509143401 68 256 7.0 10.0 0.00 0.00 0.00 73 1012.2
20260509142857 68 235 10.0 11.0 0.00 0.00 0.00 72 1012.2
20260509142353 67 256 9.0 11.0 0.00 0.00 0.00 74 1012.2
20260509141849 67 249 6.0 10.0 0.00 0.00 0.00 79 1012.1
20260509141346 67 278 6.0 8.0 0.00 0.00 0.00 78 1011.9
20260509140842 66 254 6.0 8.0 0.00 0.00 0.00 79 1012.1
20260509140340 66 230 5.0 7.0 0.00 0.00 0.00 80 1012.1
20260509135838 65 228 5.0 8.0 0.00 0.00 0.00 84 1011.9
20260509135335 65 243 4.0 6.0 0.00 0.00 0.00 84 1011.7
20260509134832 64 266 3.0 5.0 0.00 0.00 0.00 84 1011.9
20260509134329 63 230 7.0 8.0 0.00 0.00 0.00 86 1011.9
20260509133826 63 234 5.0 6.0 0.00 0.00 0.00 86 1011.9
20260509133323 62 231 8.0 8.0 0.00 0.00 0.00 87 1011.8
20260509132822 62 228 5.0 6.0 0.00 0.00 0.00 88 1011.8
20260509132320 62 251 5.0 6.0 0.00 0.00 0.00 89 1011.9
20260509131816 61 275 5.0 6.0 0.00 0.00 0.00 90 1011.8
20260509131313 60 224 6.0 6.0 0.00 0.00 0.00 90 1011.8
20260509130809 60 217 4.0 6.0 0.00 0.00 0.00 91 1011.8